SCOUT G-1 DEB

基本信息
目录编号:
43331
目录名称:
SCOUT G-1 DEB
国际标识:
1988-033M
轨道中心:
EARTH
物体状态:
在轨
发射日期:
1988-04-26 UTC
轨道信息
数据来源: 国际轨道数据
星历时间: 2026-07-03T15:01:45+0800
半长轴: 7505.429km
偏心率: 0.0172553
轨道倾角: 90.323°
近地点辐角: 119.500°
升交点赤经: 19.146°
平近点角: 242.347°
近地点: 997.783km
远地点: 1256.801km
周期: 107.851分钟
每日圈数: 13.35179
详细信息
发射场:
AFWTR
轨道高度:
LEO
数据来源:
AOE Integration Group
参考系:
TEME
时间系统:
UTC
历元类型:
SGP4
2D轨道图
3D轨道图
轨道高度分析图
轨道倾角分析图
轨道综合分析图
查看轨道综合分析图